M I D A S
Marine Information and Data Acquisition System
Tripno 403 of the Zeeleeuw from 2002-12-03 11:20:06 to 2002-12-03 16:31:27
Back to CruiseResearch ActivitiesStationsMapUnderway DataData graphs

EquipmentUnitsComments
TimeDGPSUTC
LatitudeDGPSDM.mWGS84
LongitudeDGPSDM.mWGS84
SpeedMeteo Stationm/sRelative wind speed
DirectionMeteo StationdegRelative wind direction
TemperatureMeteo Stationdeg CelciusAir temperature
PressureMeteo StationPaAtmospheric pressure
HumidityMeteo Station%Relative humidity
Missing or incorrect values are displayed as -999
Metereological data collected by the RV Zeeleeuw from 2002-12-03 11:20:06 to 2002-12-03 16:31:27
Time Latitude Longitude Speed Direction Temperature Pressure Humidity
2002-12-03 11:21 51°13.963 2°55.536 1.9 66 6.9 100950 89
2002-12-03 11:22 51°14.068 2°55.461 1.1 60 6.9 100950 89
2002-12-03 11:23 51°14.186 2°55.368 0.5 53 6.9 100950 89
2002-12-03 11:24 51°14.307 2°55.187 2.3 294 6.9 100950 88
2002-12-03 11:25 51°14.423 2°54.981 1.8 285 6.9 100940 88
2002-12-03 11:26 51°14.561 2°54.789 1.2 305 6.9 100940 88
2002-12-03 11:27 51°14.689 2°54.566 1.7 298 7 100940 88
2002-12-03 11:28 51°14.818 2°54.321 3.4 296 7 100940 88
2002-12-03 11:29 51°14.934 2°54.066 3.7 303 7.1 100930 88
2002-12-03 11:30 51°15.045 2°53.781 4.9 295 7.2 100940 88
2002-12-03 11:31 51°15.152 2°53.487 4.7 291 7.2 100940 88
2002-12-03 11:32 51°15.241 2°53.183 5.6 293 7.2 100940 88
2002-12-03 11:33 51°15.307 2°52.874 6.6 277 7.3 100950 88
2002-12-03 11:34 51°15.369 2°52.563 6.8 278 7.3 100950 87
2002-12-03 11:35 51°15.413 2°52.248 7.3 276 7.3 100950 87
2002-12-03 11:36 51°15.427 2°51.929 7.4 281 7.2 100940 87
2002-12-03 11:37 51°15.421 2°51.609 7.8 282 7.2 100930 87
2002-12-03 11:38 51°15.4 2°51.29 7.9 280 7.2 100930 87
2002-12-03 11:39 51°15.352 2°50.978 8.8 271 7.2 100930 88
2002-12-03 11:40 51°15.291 2°50.669 10.4 280 7.2 100920 88
2002-12-03 11:41 51°15.238 2°50.359 10.2 281 7.3 100930 87
2002-12-03 11:42 51°15.181 2°50.051 9.8 275 7.3 100930 88
2002-12-03 11:43 51°15.129 2°49.743 11.1 277 7.3 100930 88
2002-12-03 11:44 51°15.08 2°49.429 9.9 278 7.2 100920 87
2002-12-03 11:45 51°15.032 2°49.113 9.7 281 7.2 100930 87
2002-12-03 11:46 51°15.019 2°48.785 9.7 289 7.3 100920 88
2002-12-03 11:47 51°14.998 2°48.459 9.8 286 7.2 100930 87
2002-12-03 11:48 51°14.966 2°48.139 10.8 284 7.2 100920 87
2002-12-03 11:49 51°14.925 2°47.829 10.6 285 7.2 100930 87
2002-12-03 11:50 51°14.88 2°47.511 9.5 283 7.2 100930 87
2002-12-03 11:51 51°14.836 2°47.197 9.3 283 7.2 100930 87
2002-12-03 11:52 51°14.792 2°46.881 9.1 281 7.2 100930 87
2002-12-03 11:53 51°14.747 2°46.556 10.3 268 7.2 100930 88
2002-12-03 11:54 51°14.701 2°46.227 10.3 272 7.1 100940 88
2002-12-03 11:55 51°14.655 2°45.898 9.2 273 7.1 100940 88
2002-12-03 11:56 51°14.612 2°45.565 8.9 273 7.1 100950 88
2002-12-03 11:57 51°14.576 2°45.228 9.5 276 7.1 100940 88
2002-12-03 11:58 51°14.538 2°44.896 9.1 276 7.1 100940 88
2002-12-03 11:59 51°14.502 2°44.567 9.6 274 7.1 100940 88
2002-12-03 12:00 51°14.465 2°44.239 8.5 275 7.2 100940 88
2002-12-03 12:01 51°14.436 2°43.909 8.7 276 7.2 100940 88
2002-12-03 12:02 51°14.409 2°43.578 8.9 278 7.2 100940 88
2002-12-03 12:03 51°14.387 2°43.245 10.3 277 7.2 100940 88
2002-12-03 12:04 51°14.369 2°42.912 9.4 282 7.3 100930 88
2002-12-03 12:05 51°14.351 2°42.579 10.5 274 7.3 100940 88
2002-12-03 12:06 51°14.331 2°42.246 9.7 270 7.3 100940 88
2002-12-03 12:07 51°14.313 2°41.912 9.1 273 7.3 100940 88
2002-12-03 12:08 51°14.292 2°41.579 9.4 275 7.3 100950 88
2002-12-03 12:09 51°14.272 2°41.243 9 281 7.3 100950 88
2002-12-03 12:10 51°14.289 2°40.902 8.5 286 7.4 100950 87
2002-12-03 12:11 51°14.324 2°40.563 7.2 293 7.4 100940 88
2002-12-03 12:12 51°14.391 2°40.232 6 289 7.5 100950 87
2002-12-03 12:13 51°14.493 2°39.918 5.4 303 7.6 100950 87
2002-12-03 12:14 51°14.621 2°39.623 4.8 291 7.6 100960 87
2002-12-03 12:15 51°14.754 2°39.335 5 294 7.7 100950 88
2002-12-03 12:16 51°14.891 2°39.049 5.3 292 7.8 100960 87
2002-12-03 12:17 51°15.033 2°38.767 4.1 297 7.9 100950 87
2002-12-03 12:18 51°15.18 2°38.491 3.4 289 7.9 100960 87
2002-12-03 12:19 51°15.328 2°38.22 4.2 301 8.1 100960 87
2002-12-03 12:20 51°15.477 2°37.956 4.4 297 8.1 100960 87
2002-12-03 12:21 51°15.627 2°37.697 5 294 8.1 100970 86
2002-12-03 12:22 51°15.78 2°37.436 4.2 294 8.1 100960 86
2002-12-03 12:23 51°15.934 2°37.171 5.3 286 8.2 100960 86
2002-12-03 12:24 51°16.094 2°36.912 2.5 316 8.2 100960 85
2002-12-03 12:25 51°16.202 2°36.76 3.1 348 8.2 100960 86
2002-12-03 12:26 51°16.253 2°36.681 1 328 8.1 100960 85
2002-12-03 12:27 51°16.27 2°36.648 5.2 300 8 100950 86
2002-12-03 12:28 51°16.275 2°36.644 7.5 285 8 100950 86
2002-12-03 12:29 51°16.28 2°36.66 6.9 266 8 100950 86
2002-12-03 12:30 51°16.284 2°36.684 7 265 8.1 100950 86
2002-12-03 12:31 51°16.282 2°36.7 7.8 277 8 100940 86
2002-12-03 12:32 51°16.267 2°36.691 8.1 287 8 100940 86
2002-12-03 12:33 51°16.256 2°36.66 8.1 294 8 100950 86
2002-12-03 12:34 51°16.262 2°36.615 5.8 315 7.9 100950 86
2002-12-03 12:35 51°16.282 2°36.564 1.7 338 7.9 100950 86
2002-12-03 12:36 51°16.319 2°36.526 6.2 352 7.8 100960 86
2002-12-03 12:37 51°16.361 2°36.504 5.3 3 7.8 100960 86
2002-12-03 12:38 51°16.405 2°36.49 4.9 357 7.9 100960 87
2002-12-03 12:39 51°16.453 2°36.482 4.9 16 7.8 100960 86
2002-12-03 12:40 51°16.498 2°36.476 5.3 14 7.8 100960 86
2002-12-03 12:41 51°16.547 2°36.476 4.4 44 7.8 100960 86
2002-12-03 12:42 51°16.597 2°36.488 4.4 68 7.8 100970 86
2002-12-03 12:43 51°16.65 2°36.518 5 76 7.9 100970 86
2002-12-03 12:44 51°16.699 2°36.561 5 105 7.9 100970 86
2002-12-03 12:45 51°16.743 2°36.612 4.8 111 7.9 100970 86
2002-12-03 12:46 51°16.78 2°36.669 5.9 125 7.9 100970 87
2002-12-03 12:47 51°16.815 2°36.727 5.6 141 8 100970 87
2002-12-03 12:48 51°16.845 2°36.787 6.2 157 8 100970 86
2002-12-03 12:49 51°16.872 2°36.847 6.6 172 7.9 100970 86
2002-12-03 12:50 51°16.896 2°36.907 5.9 161 7.8 100970 86
2002-12-03 12:51 51°16.92 2°36.969 5.5 181 7.8 100970 86
2002-12-03 12:52 51°16.94 2°37.033 6.1 198 7.9 100960 87
2002-12-03 12:53 51°16.955 2°37.099 6.8 208 7.8 100960 87
2002-12-03 12:54 51°16.967 2°37.163 6.8 210 7.8 100960 87
2002-12-03 12:55 51°16.97 2°37.229 7.9 232 7.8 100960 87
2002-12-03 12:56 51°16.956 2°37.293 8.6 244 8 100960 88
2002-12-03 12:57 51°16.927 2°37.328 8.4 268 8 100960 87
2002-12-03 12:58 51°16.896 2°37.314 8 286 8 100960 87
2002-12-03 12:59 51°16.881 2°37.275 6.2 298 8 100970 87
2002-12-03 13:00 51°16.89 2°37.248 1.9 324 8 100970 86
2002-12-03 13:01 51°16.907 2°37.227 1.2 318 8 100970 87
2002-12-03 13:02 51°16.925 2°37.211 1.6 319 7.9 100970 86
2002-12-03 13:03 51°16.942 2°37.2 1.4 328 8 100980 87
2002-12-03 13:04 51°16.959 2°37.192 4.1 301 8 100980 87
2002-12-03 13:05 51°16.972 2°37.163 1.4 317 8 100980 87
2002-12-03 13:06 51°17.006 2°37.08 5 13 8 100980 87
2002-12-03 13:07 51°17.069 2°37.047 4.3 64 8 100990 87
2002-12-03 13:08 51°17.136 2°37.058 5.7 104 8.1 100990 86
2002-12-03 13:09 51°17.203 2°37.108 5.1 127 8 101000 87
2002-12-03 13:10 51°17.252 2°37.174 6.9 137 8 101000 87
2002-12-03 13:11 51°17.291 2°37.242 6.3 161 8.1 100990 87
2002-12-03 13:12 51°17.323 2°37.314 7.2 172 8.1 100990 87
2002-12-03 13:13 51°17.349 2°37.393 6 187 8 100990 87
2002-12-03 13:14 51°17.37 2°37.468 6.8 183 7.9 100990 87
2002-12-03 13:15 51°17.386 2°37.543 7.1 199 7.9 100990 87
2002-12-03 13:16 51°17.394 2°37.622 7.3 209 7.9 100980 87
2002-12-03 13:17 51°17.391 2°37.697 8.7 221 7.9 100980 87
2002-12-03 13:18 51°17.379 2°37.761 7.6 239 7.9 100990 86
2002-12-03 13:19 51°17.353 2°37.804 9.1 263 7.9 100990 86
2002-12-03 13:20 51°17.329 2°37.823 7.3 272 8 100980 87
2002-12-03 13:21 51°17.309 2°37.823 7.7 281 8.1 100980 86
2002-12-03 13:22 51°17.281 2°37.797 8.6 299 8.1 100980 87
2002-12-03 13:23 51°17.271 2°37.74 4.1 304 8 100990 86
2002-12-03 13:24 51°17.275 2°37.677 1.8 321 8.1 101000 87
2002-12-03 13:25 51°17.291 2°37.618 2.9 316 8.1 101000 87
2002-12-03 13:26 51°17.312 2°37.574 1.1 315 8 101010 87
2002-12-03 13:27 51°17.342 2°37.536 2.5 338 8.1 101000 87
2002-12-03 13:28 51°17.38 2°37.507 5.3 15 8.1 101010 87
2002-12-03 13:29 51°17.422 2°37.49 5.6 44 8.1 101020 87
2002-12-03 13:30 51°17.467 2°37.484 5.8 48 8 101010 86
2002-12-03 13:31 51°17.516 2°37.489 5.3 60 8.3 101010 87
2002-12-03 13:32 51°17.567 2°37.507 5.6 88 8.3 101010 86
2002-12-03 13:33 51°17.619 2°37.559 5.4 145 8.2 101010 85
2002-12-03 13:34 51°17.65 2°37.64 6.3 192 8.1 101010 86
2002-12-03 13:35 51°17.656 2°37.719 7.5 222 8 101000 86
2002-12-03 13:36 51°17.644 2°37.771 8.6 254 8 101000 87
2002-12-03 13:37 51°17.631 2°37.77 6.6 305 8 100990 86
2002-12-03 13:38 51°17.641 2°37.732 5.6 354 8 101000 86
2002-12-03 13:39 51°17.687 2°37.702 4.1 50 8 101020 86
2002-12-03 13:40 51°17.747 2°37.719 5.4 112 8 101020 86
2002-12-03 13:41 51°17.794 2°37.768 6 138 8 101020 86
2002-12-03 13:42 51°17.829 2°37.817 5.5 148 8 101020 87
2002-12-03 13:43 51°17.86 2°37.863 6.6 150 8.1 101020 87
2002-12-03 13:44 51°17.886 2°37.902 6.3 148 8 101020 86
2002-12-03 13:45 51°17.909 2°37.94 6.1 172 8.1 101020 87
2002-12-03 13:46 51°17.932 2°37.974 6.1 175 8 101020 87
2002-12-03 13:47 51°17.953 2°38.006 6.3 176 7.9 101020 87
2002-12-03 13:48 51°17.976 2°38.036 6.2 169 7.9 101020 87
2002-12-03 13:49 51°17.999 2°38.064 5.8 168 7.9 101030 87
2002-12-03 13:50 51°18.022 2°38.091 5.9 171 8 101030 88
2002-12-03 13:51 51°18.045 2°38.116 6.1 180 8 101030 88
2002-12-03 13:52 51°18.068 2°38.14 5.7 156 8 101030 87
2002-12-03 13:53 51°18.091 2°38.163 4.8 161 8.1 101030 87
2002-12-03 13:54 51°18.114 2°38.186 6.1 162 8.1 101030 87
2002-12-03 13:55 51°18.138 2°38.209 6.2 153 8 101030 87
2002-12-03 13:56 51°18.161 2°38.232 6.9 165 8.1 101030 87
2002-12-03 13:57 51°18.184 2°38.254 6.1 160 8 101030 87
2002-12-03 13:58 51°18.208 2°38.277 6.8 164 8 101030 87
2002-12-03 13:59 51°18.231 2°38.297 5.9 163 8 101030 87
2002-12-03 14:00 51°18.254 2°38.316 6.5 165 8 101030 87
2002-12-03 14:01 51°18.277 2°38.336 6.6 151 8.1 101030 87
2002-12-03 14:02 51°18.299 2°38.366 6.2 196 8.1 101040 87
2002-12-03 14:03 51°18.364 2°38.484 4.5 116 8.1 101030 87
2002-12-03 14:04 51°18.542 2°38.367 1 203 8.2 101040 88
2002-12-03 14:05 51°18.756 2°38.194 1.5 205 8.2 101040 87
2002-12-03 14:06 51°18.971 2°38.018 2 226 8.2 101030 87
2002-12-03 14:07 51°19.187 2°37.842 0.7 244 8.2 101040 87
2002-12-03 14:08 51°19.401 2°37.668 1.6 236 8.3 101040 87
2002-12-03 14:09 51°19.61 2°37.499 0.4 240 8.3 101040 87
2002-12-03 14:10 51°19.746 2°37.4 1.7 59 8.3 101050 87
2002-12-03 14:11 51°19.834 2°37.352 3.8 62 8.3 101050 86
2002-12-03 14:12 51°19.888 2°37.355 5.4 99 8.3 101040 86
2002-12-03 14:13 51°19.948 2°37.384 5.4 121 8.3 101040 86
2002-12-03 14:14 51°19.998 2°37.434 5.4 135 8.2 101050 86
2002-12-03 14:15 51°20.039 2°37.497 6.4 147 8.2 101050 86
2002-12-03 14:16 51°20.069 2°37.566 6.3 162 8.2 101040 86
2002-12-03 14:17 51°20.089 2°37.637 6.8 181 8.2 101040 86
2002-12-03 14:18 51°20.101 2°37.704 6.5 198 8.2 101040 86
2002-12-03 14:19 51°20.102 2°37.768 7.6 218 8.2 101040 87
2002-12-03 14:20 51°20.092 2°37.828 7.7 235 8.2 101040 86
2002-12-03 14:21 51°20.062 2°37.874 8.4 254 8.2 101040 87
2002-12-03 14:22 51°20.016 2°37.889 9 267 8.2 101030 87
2002-12-03 14:23 51°19.968 2°37.87 8.3 279 8.2 101030 86
2002-12-03 14:24 51°19.928 2°37.827 7.9 286 8.2 101040 86
2002-12-03 14:25 51°19.897 2°37.767 6.7 306 8.2 101050 86
2002-12-03 14:26 51°19.874 2°37.696 5.2 305 8.2 101040 87
2002-12-03 14:27 51°19.863 2°37.623 3.2 306 8.2 101050 87
2002-12-03 14:28 51°19.859 2°37.545 3.3 310 8.2 101050 87
2002-12-03 14:29 51°19.861 2°37.469 1.2 319 8.2 101050 88
2002-12-03 14:30 51°19.868 2°37.395 1 348 8.1 101050 87
2002-12-03 14:31 51°19.885 2°37.32 4.7 359 8.1 101050 88
2002-12-03 14:32 51°19.916 2°37.252 5.5 12 8.2 101050 88
2002-12-03 14:33 51°19.96 2°37.195 5.7 38 8.1 101050 88
2002-12-03 14:34 51°20.014 2°37.155 4.6 64 8.1 101060 88
2002-12-03 14:35 51°20.075 2°37.144 6.2 102 8.2 101060 88
2002-12-03 14:36 51°20.127 2°37.158 6.7 120 8.1 101060 87
2002-12-03 14:37 51°20.171 2°37.184 6.1 127 8.1 101070 87
2002-12-03 14:38 51°20.207 2°37.216 6.9 143 8 101060 87
2002-12-03 14:39 51°20.241 2°37.25 7 158 8 101060 88
2002-12-03 14:40 51°20.274 2°37.286 6.7 161 8 101060 88
2002-12-03 14:41 51°20.3 2°37.367 10.5 218 8 101060 88
2002-12-03 14:42 51°20.187 2°37.473 13.7 258 7.9 101050 88
2002-12-03 14:43 51°19.992 2°37.514 14.9 245 7.9 101030 88
2002-12-03 14:44 51°19.794 2°37.613 14.7 242 7.9 101030 88
2002-12-03 14:45 51°19.594 2°37.713 14.4 247 7.9 101040 88
2002-12-03 14:46 51°19.394 2°37.809 14.3 247 7.8 101040 88
2002-12-03 14:47 51°19.194 2°37.908 14.6 243 7.9 101050 88
2002-12-03 14:48 51°18.994 2°38.007 14.3 242 7.8 101050 88
2002-12-03 14:49 51°18.788 2°38.111 14.7 243 7.8 101060 88
2002-12-03 14:50 51°18.578 2°38.216 14.8 248 7.7 101050 88
2002-12-03 14:51 51°18.368 2°38.323 15.7 243 7.8 101050 89
2002-12-03 14:52 51°18.161 2°38.431 16.7 247 7.6 101050 88
2002-12-03 14:53 51°17.955 2°38.541 15.2 245 7.5 101060 89
2002-12-03 14:54 51°17.749 2°38.648 16 247 7.5 101060 89
2002-12-03 14:55 51°17.543 2°38.754 15.5 244 7.5 101060 89
2002-12-03 14:56 51°17.331 2°38.856 15.8 240 7.4 101060 89
2002-12-03 14:57 51°17.119 2°38.952 16 246 7.3 101050 89
2002-12-03 14:58 51°16.914 2°39.043 14.8 251 7.2 101050 89
2002-12-03 14:59 51°16.704 2°39.139 15 246 7.2 101060 90
2002-12-03 15:00 51°16.492 2°39.237 16.3 248 7.1 101060 90
2002-12-03 15:01 51°16.28 2°39.333 16.2 245 7 101060 90
2002-12-03 15:02 51°16.068 2°39.432 16.4 246 6.9 101070 90
2002-12-03 15:03 51°15.858 2°39.53 16.5 245 6.8 101060 90
2002-12-03 15:04 51°15.647 2°39.627 15.5 243 6.7 101070 91
2002-12-03 15:05 51°15.441 2°39.743 15.9 240 6.6 101070 91
2002-12-03 15:06 51°15.249 2°39.915 15.1 233 6.5 101080 91
2002-12-03 15:07 51°15.068 2°40.114 15.6 232 6.6 101090 91
2002-12-03 15:08 51°14.908 2°40.353 15.9 228 6.4 101090 92
2002-12-03 15:09 51°14.762 2°40.61 15.1 225 6.3 101090 91
2002-12-03 15:10 51°14.615 2°40.87 14.9 223 6.2 101080 92
2002-12-03 15:11 51°14.467 2°41.127 15.2 224 6.1 101090 92
2002-12-03 15:12 51°14.317 2°41.383 14.8 224 6 101090 92
2002-12-03 15:13 51°14.186 2°41.601 12.7 226 6 101100 92
2002-12-03 15:14 51°14.103 2°41.653 9.3 245 6 101110 92
2002-12-03 15:15 51°14.05 2°41.646 9.5 246 6 101110 92
2002-12-03 15:16 51°14.012 2°41.614 8.8 297 6.1 101100 93
2002-12-03 15:17 51°14.004 2°41.544 4.7 350 6 101100 93
2002-12-03 15:18 51°14.028 2°41.478 7 26 5.9 101120 93
2002-12-03 15:19 51°14.071 2°41.452 7.4 84 6 101130 93
2002-12-03 15:20 51°14.107 2°41.473 6.9 142 5.9 101130 93
2002-12-03 15:21 51°14.124 2°41.518 8.1 160 5.8 101130 93
2002-12-03 15:22 51°14.125 2°41.589 8.3 183 5.8 101120 93
2002-12-03 15:23 51°14.113 2°41.661 8.5 192 5.7 101120 93
2002-12-03 15:24 51°14.095 2°41.725 8 193 5.6 101120 93
2002-12-03 15:25 51°14.071 2°41.785 9.5 202 5.6 101110 93
2002-12-03 15:26 51°14.043 2°41.839 9.2 211 5.5 101130 93
2002-12-03 15:27 51°14.017 2°41.895 9.5 204 5.4 101130 93
2002-12-03 15:28 51°13.991 2°41.953 9.1 209 5.4 101130 93
2002-12-03 15:29 51°13.963 2°42.009 9.2 210 5.5 101130 93
2002-12-03 15:30 51°13.934 2°42.065 9.1 214 5.5 101130 93
2002-12-03 15:31 51°13.904 2°42.116 8.7 220 5.5 101140 94
2002-12-03 15:32 51°13.871 2°42.167 8.2 205 5.6 101140 94
2002-12-03 15:33 51°13.836 2°42.215 8.6 219 5.6 101140 94
2002-12-03 15:34 51°13.793 2°42.243 9.2 227 5.8 101140 94
2002-12-03 15:35 51°13.744 2°42.244 9.4 244 5.7 101140 94
2002-12-03 15:36 51°13.695 2°42.211 9.5 271 5.6 101130 94
2002-12-03 15:37 51°13.658 2°42.151 8.9 277 5.6 101130 94
2002-12-03 15:38 51°13.634 2°42.076 5.6 317 5.6 101130 94
2002-12-03 15:39 51°13.626 2°41.999 2.9 322 5.6 101140 94
2002-12-03 15:40 51°13.628 2°41.93 2.6 317 5.6 101150 94
2002-12-03 15:41 51°13.632 2°41.861 1.7 338 5.7 101150 94
2002-12-03 15:42 51°13.637 2°41.79 3.4 330 5.9 101150 94
2002-12-03 15:43 51°13.644 2°41.721 2.6 341 5.7 101160 94
2002-12-03 15:44 51°13.66 2°41.652 5.6 5 5.7 101160 94
2002-12-03 15:45 51°13.758 2°41.55 2.9 128 5.7 101170 94
2002-12-03 15:46 51°13.902 2°41.727 9.4 185 5.8 101150 94
2002-12-03 15:47 51°13.986 2°42.048 8.9 186 5.7 101140 94
2002-12-03 15:48 51°14.069 2°42.374 10.2 191 5.5 101150 94
2002-12-03 15:49 51°14.157 2°42.693 8.3 185 5.4 101150 94
2002-12-03 15:50 51°14.229 2°43.028 10 187 5.4 101160 94
2002-12-03 15:51 51°14.292 2°43.361 9.6 184 5.5 101150 94
2002-12-03 15:52 51°14.376 2°43.678 12.7 197 5.6 101150 94
2002-12-03 15:53 51°14.452 2°44.003 10.4 195 5.4 101150 94
2002-12-03 15:54 51°14.509 2°44.337 9 185 5.4 101160 94
2002-12-03 15:55 51°14.546 2°44.675 14 206 5.4 101160 94
2002-12-03 15:56 51°14.556 2°45.011 10.1 195 5.3 101160 94
2002-12-03 15:57 51°14.576 2°45.349 10 188 5.2 101170 94
2002-12-03 15:58 51°14.574 2°45.675 11 206 5.2 101170 94
2002-12-03 15:59 51°14.563 2°45.991 11.5 204 5.3 101170 94
2002-12-03 16:00 51°14.556 2°46.35 12.7 197 5.4 101160 94
2002-12-03 16:01 51°14.58 2°46.699 12.9 206 5.3 101160 94
2002-12-03 16:02 51°14.596 2°47.027 12.6 203 5.2 101170 94
2002-12-03 16:03 51°14.603 2°47.365 10 194 5.1 101170 94
2002-12-03 16:04 51°14.607 2°47.711 13 203 5.2 101180 94
2002-12-03 16:05 51°14.667 2°48.04 11.5 192 5.2 101170 94
2002-12-03 16:06 51°14.714 2°48.366 10.8 199 5.1 101170 94
2002-12-03 16:07 51°14.771 2°48.707 11.8 200 5.1 101180 94
2002-12-03 16:08 51°14.841 2°49.018 11 195 5.1 101170 94
2002-12-03 16:09 51°14.915 2°49.347 9.6 187 5.1 101180 94
2002-12-03 16:10 51°15.021 2°49.638 9.2 179 4.9 101190 94
2002-12-03 16:11 51°15.145 2°49.929 7.5 192 4.8 101190 95
2002-12-03 16:12 51°15.264 2°50.212 7.7 187 4.9 101200 95
2002-12-03 16:13 51°15.367 2°50.505 11.3 195 5 101200 95
2002-12-03 16:14 51°15.413 2°50.831 9.3 190 5 101190 95
2002-12-03 16:15 51°15.415 2°51.087 11.3 202 4.9 101190 95
2002-12-03 16:16 51°15.412 2°51.358 9.5 198 5.1 101200 95
2002-12-03 16:17 51°15.406 2°51.638 10.6 200 5.1 101180 95
2002-12-03 16:18 51°15.384 2°51.926 11.7 211 5 101200 95
2002-12-03 16:19 51°15.304 2°52.179 12.7 215 5 101210 95
2002-12-03 16:20 51°15.208 2°52.45 11.9 216 5 101210 95
2002-12-03 16:21 51°15.114 2°52.737 12.7 213 4.9 101200 95
2002-12-03 16:22 51°15.021 2°53.024 13.2 210 4.8 101200 95
2002-12-03 16:23 51°14.93 2°53.315 13 208 4.8 101200 95
2002-12-03 16:24 51°14.849 2°53.613 11.5 209 4.8 101220 95
2002-12-03 16:25 51°14.775 2°53.917 11 219 4.8 101220 95
2002-12-03 16:26 51°14.705 2°54.194 10.4 222 4.8 101230 95
2002-12-03 16:27 51°14.624 2°54.448 8.8 211 4.8 101230 95
2002-12-03 16:28 51°14.527 2°54.684 10.4 215 4.8 101230 95
2002-12-03 16:29 51°14.429 2°54.925 11.3 214 4.8 101230 95
2002-12-03 16:30 51°14.339 2°55.137 12.1 225 4.8 101220 95
2002-12-03 16:31 51°14.239 2°55.296 10.8 224 4.7 101230 95